Regional Weather Roundup
Issued by NWS

Home | Current Version | Previous Version | Graphics & Text | Print | Product List | Glossary On
Versions: 1 2 3 4 5 6 7 8 9 10 11 12 13 14 15 16 17 18 19 20 21 22 23 24 25 26 27 28 29 30 31 32 33 34 35 36 37 38 39 40 41 42 43 44 45 46 47 48 49 50
000
ASUS43 KMKX 270100
RWRWI

WISCONSIN REGIONAL WEATHER ROUNDUP
NATIONAL WEATHER SERVICE MILWAUKEE/SULLIVAN WI
700 PM CST SUN FEB 26 2017

NOTE: "FAIR" INDICATES FEW OR NO CLOUDS BELOW 12,000 FEET WITH NO
SIGNIFICANT WEATHER AND/OR OBSTRUCTIONS TO VISIBILITY.

WIZ001-002-006>008-014>016-023>028-270200-
NORTHWEST WISCONSIN

CITY           SKY/WX    TMP DP  RH WIND       PRES   REMARKS
SUPERIOR ARPT  CLEAR     19   3  49 W3        29.91R
ASHLAND        CLEAR     19   5  54 W5        29.91R WCI  12
HAYWARD        CLEAR     23   4  44 CALM      29.88R
SIREN          CLEAR     25   3  38 CALM      29.89R
CUMBERLAND     CLEAR     27   5  39 NW6       29.87R WCI  20
RICE LAKE      CLEAR     28   8  44 NW5       29.89R WCI  23
CHETEK         CLEAR     27  11  52 CALM      29.88R
LADYSMITH      CLEAR     26  11  53 NW6       29.88R WCI  20
EAU CLAIRE     NOT AVBL
MENOMONIE      CLEAR     31  16  54 W5        29.88R WCI  26
NEW RICHMOND   CLEAR     28  15  60 CALM      29.89R
OSCEOLA        CLEAR     29  14  53 NW3       29.93R
$$

WIZ003>005-009-010-017-018-270200-
NORTH CENTRAL WISCONSIN

CITY           SKY/WX    TMP DP  RH WIND       PRES   REMARKS
MANITOWISH WTR CLEAR     15  11  83 NW6       29.82R WCI   7
ARBOR VITAE    CLEAR     22  15  73 NW7         N/A  WCI  13
WOODRUFF       CLEAR     22  15  73 NW7         N/A  WCI  13
RHINELANDER    CLEAR     27  15  61 NW6       29.82R WCI  20
EAGLE RIVER    CLEAR     21  13  70 NW5       29.81R WCI  15
LAND O LAKES   CLEAR     20  16  84 NW3       29.82R
PHILLIPS       CLEAR     24  11  58 NW3       29.83R
TOMAHAWK       CLEAR     24  21  86 W5        29.83R WCI  18
MEDFORD        CLOUDY    28  24  84 W5        29.83R WCI  23
MERRILL        NOT AVBL
$$

WIZ029-030-035-036-043>047-270200-
CENTRAL WISCONSIN

CITY           SKY/WX    TMP DP  RH WIND       PRES   REMARKS
WAUSAU         CLOUDY    31  20  63 SW12      29.83R WCI  22
MOSINEE        CLEAR     28  19  69 SW10      29.86R WCI  19
MARSHFIELD     MOCLDY    29  18  63 SW8       29.85R WCI  21
STEVENS POINT  CLEAR     31  16  53 W10       29.86R WCI  23
WAUPACA        CLEAR     37  24  60 W8        29.86R WCI  30
WAUTOMA        PTCLDY    35  23  61 SW7         N/A  WCI  29
WISC RAPIDS    CLEAR     32  19  58 W7        29.89R WCI  26
CAMP DOUGLAS   NOT AVBL
$$

WIZ011>013-019>022-031-037>040-048>050-270200-
NORTHEAST WISCONSIN

CITY           SKY/WX    TMP DP  RH WIND       PRES   REMARKS
ANTIGO         CLOUDY    30  21  69 W15       29.81R WCI  19
SHAWANO        CLEAR     34  20  54 W3        29.86R
OCONTO         CLEAR     34  19  54 W8        29.85R WCI  27
STURGEON BAY   CLEAR     34  21  59 W7        29.86R WCI  28
GREEN BAY      PTCLDY    38  25  59 SW9       29.86R WCI  31
MANITOWOC      NOT AVBL
APPLETON       MOCLDY    37  21  52 SW10      29.85R WCI  30
CLINTONVILLE   CLEAR     34  19  55 W9        29.86R WCI  26
OSHKOSH        CLEAR     36  23  59 SW6       29.87R WCI  31
$$

WIZ032>034-041-042-053>061-270200-
SOUTHWEST WISCONSIN

CITY           SKY/WX    TMP DP  RH WIND       PRES   REMARKS
LA CROSSE      CLEAR     33  23  66 SW9       29.94R WCI  25
SPARTA         CLEAR     33  21  61 W7        29.92R WCI  27
VIROQUA        CLEAR     31  22  70 W10       29.91R WCI  22
BOSCOBEL       CLEAR     36  24  62 SW3       29.96R
PRAIRIE DU CHI CLEAR     35  25  67 W3        29.96R
PLATTEVILLE    CLEAR     35  25  66 W10       29.94R WCI  27
$$

WIZ056-057-062-063-064-067-068-270200-
SOUTH CENTRAL WISCONSIN

CITY           SKY/WX    TMP DP  RH WIND       PRES   REMARKS
REEDSBURG      CLEAR     34  24  67 SW8       29.92R WCI  27
BARABOO/DELLS  CLEAR     35  22  58 W12       29.90R WCI  27
LONE ROCK      NOT AVBL
MINERAL POINT  CLEAR     36  28  75 W9        29.93R WCI  29
MADISON        CLEAR     36  23  59 SW3       29.92R
MIDDLETON      CLEAR     38  25  60 W8        29.92R WCI  32
WATERTOWN      CLEAR     37  24  60 SW6       29.91R WCI  32
MONROE         CLEAR     37  25  60 W9        29.93R WCI  31
JANESVILLE     CLEAR     39  23  52 W8        29.93R WCI  34
$$

WIZ051-052-058>065-066-070>072-270200-
SOUTHEAST WISCONSIN

CITY           SKY/WX    TMP DP  RH WIND       PRES   REMARKS
MILWAUKEE      PTCLDY    40  23  50 SW7       29.93R
WAUKESHA       CLEAR     36  21  55 SW8       29.93R WCI  29
MILWAUKEE/TIMM CLEAR     37  21  52 SW7       29.92R WCI  32
RACINE         CLEAR     37  23  56 SW8       29.96R WCI  31
KENOSHA        CLOUDY    39  24  55 SW6       29.94R WCI  35
FOND DU LAC    PTCLDY    35  24  64 SW6       29.89R WCI  30
SHEBOYGAN      CLEAR     35  25  66 SW9       29.89R WCI  28
WEST BEND      CLEAR     34  25  69 SW5       29.90R WCI  30
JUNEAU         CLEAR     34  27  73 SW9       29.91R WCI  27
$$

LSZ147-162-270200-
LAKE SUPERIOR

STATION/POSITION TIME  TEMP    WIND        PRES    WAVE
                       AIR SEA DIR/SP/G            HT/PER
                 (UTC) (F)     (DEG/KT/KT) (MB)    (FT/S)
DEVILS ISLAND    0000   24     280/ 19/ 21 1012.4R
PORT WING        0040   25     280/  9/ 15 1012.5R
SAXON HARBOR     0040   23     270/  5/  7 1012.5R
$$

LMZ867-665-643>646-270200-
LAKE MICHIGAN

STATION/POSITION TIME  TEMP    WIND        PRES    WAVE
                       AIR SEA DIR/SP/G            HT/PER
                 (UTC) (F)     (DEG/KT/KT) (MB)    (FT/S)
CHAMBERS ISLAND  0040   35     230/  9/ 14 1009.8R
NORTHPORT PIER   0040   34     270/  2/  7 1010.2R
SISTER BAY       0005   35     290/ 19/ 24   N/A
KEWAUNEE LAKESHO 0030   37     240/  6/  9 1010.5R
SHEBOYGAN LAKESH 0000   39     230/ 11/ 12 1012.5R
PORT WASHINGTON  0030   38     240/  3/  5 1013.9R
MILWAUKEE LAKESH 0030   43     230/  8/  9   N/A
KENOSHA   LAKESH 0000   44     240/  8/ 13 1013.5
$$

TC  - TEMPERATURE IN CELSIUS
VSB - VISIBILITY IN STATUTE MILES
WCI - WIND CHILL INDEX
HX  - HEAT INDEX




USA.gov is the U.S. government's official web portal to all federal, state and local government web resources and services.